This is the latest recevied weather packets stored in our database for station/object AE5HO. If no packets are shown the sender has not sent any weather packets the latest 10 day(s).
| Time | Temp. | Humidity | Pressure | Rain* | Wind** | Luminosity | Snow |
|---|---|---|---|---|---|---|---|
| 1777996992 | 26.11° C | 77% | 1004.9 hPa | 0 mm | - | 351 W/m² | - |
| 1777996688 | 26.11° C | 78% | 1005.1 hPa | 0 mm | - | 513 W/m² | - |
| 1777996383 | 25.56° C | 77% | 1004.9 hPa | 0 mm | - | 388 W/m² | - |
| 1777996080 | 25.56° C | 77% | 1005 hPa | 0 mm | - | 214 W/m² | - |
| 1777995777 | 25.56° C | 79% | 1004.9 hPa | 0 mm | - | 201 W/m² | - |
| 1777995473 | 25° C | 79% | 1004.8 hPa | 0 mm | - | 234 W/m² | - |
| 1777995170 | 25° C | 79% | 1005 hPa | 0 mm | - | 201 W/m² | - |
| 1777994868 | 25° C | 79% | 1004.9 hPa | 0 mm | - | 168 W/m² | - |
| 1777994564 | 25° C | 79% | 1004.9 hPa | 0 mm | - | 132 W/m² | - |
| 1777994264 | 25° C | 79% | 1005 hPa | 0 mm | - | 153 W/m² | - |
| 1777993962 | 25° C | 80% | 1004.8 hPa | 0 mm | - | 191 W/m² | - |
| 1777993659 | 25° C | 80% | 1004.9 hPa | 0 mm | - | 197 W/m² | - |
| 1777993356 | 24.44° C | 81% | 1005.1 hPa | 0 mm | - | 172 W/m² | - |
| 1777993056 | 23.89° C | 81% | 1005 hPa | 0 mm | - | 139 W/m² | - |
| 1777992754 | 23.89° C | 82% | 1004.9 hPa | 0 mm | - | 144 W/m² | - |
| 1777992452 | 23.89° C | 82% | 1004.9 hPa | 0 mm | - | 125 W/m² | - |
| 1777992150 | 23.89° C | 83% | 1005.1 hPa | 0 mm | - | 130 W/m² | - |
| 1777991847 | 23.89° C | 83% | 1005.4 hPa | 0 mm | - | 109 W/m² | - |
| 1777991544 | 23.89° C | 83% | 1005.1 hPa | 0 mm | - | 99 W/m² | - |
| 1777991240 | 23.33° C | 84% | 1005.1 hPa | 0 mm | - | 141 W/m² | - |
| 1777990938 | 23.33° C | 84% | 1005 hPa | 0 mm | - | 133 W/m² | - |
| 1777990636 | 23.33° C | 84% | 1005 hPa | 0 mm | - | 105 W/m² | - |
| 1777990333 | 22.78° C | 85% | 1004.9 hPa | 0 mm | - | 98 W/m² | - |
| 1777990029 | 22.78° C | 85% | 1004.7 hPa | 0 mm | - | 105 W/m² | - |
| 1777989726 | 22.78° C | 85% | 1004.6 hPa | 0 mm | - | 103 W/m² | - |
* Rain latest hour (hover to see other rain measurements)
** Current wind speed in m/s (hover to see current wind gust speed)